| time (UTC) | temp C | wind direction | speed KPH | gust KPH | rain 1hr cm | rain 24hr cm | rain mn cm | humidity % | barometer mb |
| 20260503022555 | 12 | 0 | 0.0 | 4.8 | 0.00 | 0.00 | 0.00 | 78 | 1013.4 |
| 20260503022059 | 12 | 0 | 1.6 | 6.4 | 0.00 | 0.00 | 0.00 | 77 | 1013.5 |
| 20260503021604 | 12 | 360 | 3.2 | 6.4 | 0.00 | 0.00 | 0.00 | 77 | 1013.4 |
| 20260503021055 | 12 | 0 | 0.0 | 4.8 | 0.00 | 0.00 | 0.00 | 76 | 1013.4 |
| 20260503020555 | 12 | 360 | 3.2 | 4.8 | 0.00 | 0.00 | 0.00 | 75 | 1013.5 |
| 20260503020058 | 12 | 0 | 0.0 | 3.2 | 0.00 | 0.00 | 0.00 | 74 | 1013.5 |
| 20260503015555 | 13 | 0 | 0.0 | 0.0 | 0.00 | 0.00 | 0.00 | 74 | 1013.6 |
| 20260503015056 | 13 | 0 | 0.0 | 0.0 | 0.00 | 0.00 | 0.00 | 75 | 1013.5 |
| 20260503014611 | 13 | 0 | 0.0 | 0.0 | 0.00 | 0.00 | 0.00 | 74 | 1013.6 |
| 20260503014056 | 13 | 0 | 0.0 | 0.0 | 0.00 | 0.00 | 0.00 | 74 | 1013.6 |
| 20260503013556 | 13 | 0 | 0.0 | 4.8 | 0.00 | 0.00 | 0.00 | 74 | 1013.6 |
| 20260503013058 | 13 | 0 | 0.0 | 8.0 | 0.00 | 0.00 | 0.00 | 73 | 1013.6 |
| 20260503012556 | 13 | 360 | 1.6 | 8.0 | 0.00 | 0.00 | 0.00 | 73 | 1013.7 |
| 20260503012058 | 13 | 360 | 3.2 | 8.0 | 0.00 | 0.00 | 0.00 | 73 | 1013.8 |
| 20260503011600 | 13 | 360 | 1.6 | 4.8 | 0.00 | 0.00 | 0.00 | 73 | 1013.7 |
| 20260503011055 | 13 | 360 | 1.6 | 6.4 | 0.00 | 0.00 | 0.00 | 73 | 1013.7 |
| 20260503010555 | 13 | 360 | 0.0 | 8.0 | 0.00 | 0.00 | 0.00 | 72 | 1013.8 |
| 20260503010058 | 13 | 360 | 3.2 | 8.0 | 0.00 | 0.00 | 0.00 | 72 | 1013.9 |
| 20260503005556 | 13 | 360 | 3.2 | 8.0 | 0.00 | 0.00 | 0.00 | 71 | 1014.0 |
| 20260503005056 | 13 | 360 | 3.2 | 9.7 | 0.00 | 0.00 | 0.00 | 70 | 1014.1 |
| 20260503004602 | 13 | 360 | 3.2 | 9.7 | 0.00 | 0.00 | 0.00 | 69 | 1014.2 |
| 20260503004059 | 13 | 360 | 4.8 | 12.9 | 0.00 | 0.00 | 0.00 | 68 | 1014.3 |
| 20260503003558 | 13 | 360 | 4.8 | 14.5 | 0.00 | 0.00 | 0.00 | 67 | 1014.3 |
| 20260503003106 | 13 | 360 | 4.8 | 19.3 | 0.00 | 0.00 | 0.00 | 65 | 1014.3 |
| 20260503002558 | 13 | 360 | 4.8 | 19.3 | 0.00 | 0.00 | 0.00 | 65 | 1014.3 |
| 20260503002056 | 13 | 360 | 4.8 | 19.3 | 0.00 | 0.00 | 0.00 | 63 | 1014.5 |
| 20260503001606 | 13 | 360 | 3.2 | 9.7 | 0.00 | 0.00 | 0.00 | 62 | 1014.3 |
| 20260503001055 | 13 | 360 | 1.6 | 22.5 | 0.00 | 0.00 | 0.00 | 61 | 1014.4 |
| 20260503000559 | 14 | 360 | 4.8 | 22.5 | 0.00 | 0.00 | 0.00 | 61 | 1014.4 |
| 20260503000055 | 14 | 360 | 1.6 | 6.4 | 0.00 | 0.00 | 0.00 | 59 | 1014.5 |
| 20260502235556 | 15 | 360 | 1.6 | 6.4 | 0.00 | 0.00 | 0.00 | 56 | 1014.0 |
| 20260502235056 | 15 | 186 | 1.6 | 6.4 | 0.00 | 0.00 | 0.00 | 56 | 1014.0 |
| 20260502234556 | 15 | 186 | 3.2 | 8.0 | 0.00 | 0.00 | 0.00 | 56 | 1014.0 |
| 20260502234056 | 15 | 186 | 3.2 | 9.7 | 0.00 | 0.00 | 0.00 | 55 | 1014.1 |
| 20260502233556 | 15 | 180 | 4.8 | 12.9 | 0.00 | 0.00 | 0.00 | 55 | 1014.1 |
| 20260502233057 | 15 | 360 | 6.4 | 12.9 | 0.00 | 0.00 | 0.00 | 55 | 1014.1 |
| 20260502232559 | 15 | 170 | 4.8 | 12.9 | 0.00 | 0.00 | 0.00 | 56 | 1014.1 |
| 20260502232056 | 15 | 178 | 4.8 | 12.9 | 0.00 | 0.00 | 0.00 | 55 | 1014.1 |
| 20260502231600 | 15 | 360 | 6.4 | 12.9 | 0.00 | 0.00 | 0.00 | 55 | 1014.1 |
| 20260502231057 | 15 | 360 | 6.4 | 12.9 | 0.00 | 0.00 | 0.00 | 55 | 1014.1 |
| 20260502230557 | 15 | 159 | 6.4 | 12.9 | 0.00 | 0.00 | 0.00 | 55 | 1014.1 |
| 20260502230058 | 15 | 360 | 6.4 | 12.9 | 0.00 | 0.00 | 0.00 | 55 | 1014.1 |
| 20260502225555 | 15 | 360 | 4.8 | 12.9 | 0.00 | 0.00 | 0.00 | 55 | 1014.1 |
| 20260502225057 | 15 | 360 | 4.8 | 12.9 | 0.00 | 0.00 | 0.00 | 55 | 1014.2 |
| 20260502224604 | 15 | 360 | 6.4 | 14.5 | 0.00 | 0.00 | 0.00 | 55 | 1014.2 |
| 20260502224056 | 15 | 360 | 6.4 | 14.5 | 0.00 | 0.00 | 0.00 | 55 | 1014.2 |
| 20260502223556 | 15 | 360 | 6.4 | 14.5 | 0.00 | 0.00 | 0.00 | 55 | 1014.2 |
| 20260502223057 | 15 | 360 | 6.4 | 16.1 | 0.00 | 0.00 | 0.00 | 55 | 1014.2 |
| 20260502222555 | 15 | 360 | 6.4 | 16.1 | 0.00 | 0.00 | 0.00 | 55 | 1014.3 |
| 20260502222055 | 16 | 360 | 8.0 | 16.1 | 0.00 | 0.00 | 0.00 | 55 | 1014.3 |
| 20260502221556 | 16 | 360 | 6.4 | 16.1 | 0.00 | 0.00 | 0.00 | 55 | 1014.3 |
| 20260502221057 | 16 | 360 | 4.8 | 12.9 | 0.00 | 0.00 | 0.00 | 55 | 1014.2 |
| 20260502220556 | 16 | 360 | 6.4 | 12.9 | 0.00 | 0.00 | 0.00 | 55 | 1014.3 |
| 20260502220056 | 16 | 360 | 6.4 | 12.9 | 0.00 | 0.00 | 0.00 | 55 | 1014.3 |
| 20260502215556 | 16 | 360 | 6.4 | 12.9 | 0.00 | 0.00 | 0.00 | 55 | 1014.3 |
| 20260502215055 | 16 | 360 | 4.8 | 12.9 | 0.00 | 0.00 | 0.00 | 55 | 1014.3 |
| 20260502214558 | 16 | 360 | 6.4 | 12.9 | 0.00 | 0.00 | 0.00 | 55 | 1014.3 |
| 20260502214057 | 16 | 172 | 6.4 | 11.3 | 0.00 | 0.00 | 0.00 | 55 | 1014.3 |
| 20260502213556 | 16 | 360 | 6.4 | 12.9 | 0.00 | 0.00 | 0.00 | 55 | 1014.4 |
| 20260502213059 | 16 | 360 | 6.4 | 12.9 | 0.00 | 0.00 | 0.00 | 56 | 1014.5 |
| 20260502212556 | 16 | 360 | 4.8 | 9.7 | 0.00 | 0.00 | 0.00 | 56 | 1014.5 |
| 20260502212056 | 16 | 360 | 4.8 | 9.7 | 0.00 | 0.00 | 0.00 | 56 | 1014.5 |
| 20260502211555 | 16 | 360 | 4.8 | 9.7 | 0.00 | 0.00 | 0.00 | 56 | 1014.6 |
| 20260502211059 | 16 | 360 | 4.8 | 11.3 | 0.00 | 0.00 | 0.00 | 56 | 1014.6 |
| 20260502210555 | 16 | 360 | 4.8 | 11.3 | 0.00 | 0.00 | 0.00 | 56 | 1014.6 |
| 20260502210115 | 17 | 172 | 4.8 | 11.3 | 0.00 | 0.00 | 0.00 | 56 | 1014.6 |
| 20260502205556 | 17 | 360 | 4.8 | 9.7 | 0.00 | 0.00 | 0.00 | 56 | 1014.7 |
| 20260502205100 | 17 | 155 | 3.2 | 9.7 | 0.00 | 0.00 | 0.00 | 55 | 1014.6 |
| 20260502204559 | 17 | 156 | 3.2 | 9.7 | 0.00 | 0.00 | 0.00 | 55 | 1014.7 |
| 20260502204057 | 17 | 142 | 3.2 | 8.0 | 0.00 | 0.00 | 0.00 | 55 | 1014.7 |
| 20260502203559 | 17 | 152 | 3.2 | 9.7 | 0.00 | 0.00 | 0.00 | 54 | 1014.7 |
| 20260502203054 | 17 | 161 | 3.2 | 11.3 | 0.00 | 0.00 | 0.00 | 54 | 1014.7 |
| 20260502202558 | 17 | 150 | 3.2 | 11.3 | 0.00 | 0.00 | 0.00 | 54 | 1014.7 |
| 20260502202057 | 18 | 139 | 3.2 | 8.0 | 0.00 | 0.00 | 0.00 | 54 | 1014.7 |
| 20260502201557 | 18 | 137 | 3.2 | 8.0 | 0.00 | 0.00 | 0.00 | 55 | 1014.8 |
| 20260502201057 | 18 | 137 | 3.2 | 6.4 | 0.00 | 0.00 | 0.00 | 54 | 1014.8 |
| 20260502200558 | 18 | 137 | 3.2 | 6.4 | 0.00 | 0.00 | 0.00 | 53 | 1014.8 |
| 20260502200058 | 18 | 138 | 3.2 | 8.0 | 0.00 | 0.00 | 0.00 | 53 | 1014.9 |
| 20260502195557 | 18 | 137 | 3.2 | 8.0 | 0.00 | 0.00 | 0.00 | 52 | 1014.9 |
| 20260502195056 | 18 | 126 | 3.2 | 6.4 | 0.00 | 0.00 | 0.00 | 53 | 1015.0 |
| 20260502194556 | 18 | 124 | 1.6 | 9.7 | 0.00 | 0.00 | 0.00 | 52 | 1015.0 |
| 20260502194100 | 19 | 124 | 3.2 | 9.7 | 0.00 | 0.00 | 0.00 | 52 | 1014.9 |
| 20260502193556 | 19 | 121 | 4.8 | 9.7 | 0.00 | 0.00 | 0.00 | 52 | 1014.9 |
| 20260502193103 | 19 | 144 | 4.8 | 9.7 | 0.00 | 0.00 | 0.00 | 51 | 1015.0 |
| 20260502192558 | 19 | 150 | 4.8 | 9.7 | 0.00 | 0.00 | 0.00 | 50 | 1015.0 |
| 20260502192057 | 20 | 130 | 3.2 | 8.0 | 0.00 | 0.00 | 0.00 | 48 | 1014.9 |
| 20260502191602 | 20 | 131 | 3.2 | 8.0 | 0.00 | 0.00 | 0.00 | 47 | 1014.9 |
| 20260502191057 | 20 | 127 | 3.2 | 8.0 | 0.00 | 0.00 | 0.00 | 45 | 1014.8 |
| 20260502190558 | 20 | 188 | 3.2 | 6.4 | 0.00 | 0.00 | 0.00 | 44 | 1014.9 |
| 20260502190107 | 20 | 188 | 3.2 | 6.4 | 0.00 | 0.00 | 0.00 | 44 | 1014.9 |
| 20260502185556 | 21 | 198 | 3.2 | 4.8 | 0.00 | 0.00 | 0.00 | 44 | 1014.8 |
| 20260502185057 | 21 | 360 | 3.2 | 4.8 | 0.00 | 0.00 | 0.00 | 43 | 1014.8 |
| 20260502184601 | 21 | 360 | 3.2 | 4.8 | 0.00 | 0.00 | 0.00 | 43 | 1014.8 |
| 20260502184057 | 21 | 360 | 3.2 | 4.8 | 0.00 | 0.00 | 0.00 | 43 | 1014.8 |
| 20260502183557 | 22 | 360 | 3.2 | 4.8 | 0.00 | 0.00 | 0.00 | 42 | 1014.7 |
| 20260502183111 | 22 | 360 | 1.6 | 4.8 | 0.00 | 0.00 | 0.00 | 41 | 1014.7 |
| 20260502182558 | 22 | 199 | 1.6 | 4.8 | 0.00 | 0.00 | 0.00 | 40 | 1014.8 |
| 20260502182056 | 22 | 199 | 1.6 | 4.8 | 0.00 | 0.00 | 0.00 | 39 | 1014.7 |
| 20260502181557 | 23 | 199 | 1.6 | 4.8 | 0.00 | 0.00 | 0.00 | 38 | 1014.8 |
| 20260502181057 | 23 | 198 | 3.2 | 4.8 | 0.00 | 0.00 | 0.00 | 37 | 1014.7 |
| 20260502180602 | 23 | 198 | 1.6 | 6.4 | 0.00 | 0.00 | 0.00 | 36 | 1014.8 |
| 20260502164057 | 25 | 222 | 4.8 | 9.7 | 0.00 | 0.00 | 0.00 | 32 | 1015.3 |
| 20260502163557 | 25 | 220 | 4.8 | 8.0 | 0.00 | 0.00 | 0.00 | 30 | 1015.4 |
| 20260502163057 | 26 | 230 | 3.2 | 12.9 | 0.00 | 0.00 | 0.00 | 31 | 1015.4 |
| 20260502162557 | 26 | 221 | 4.8 | 14.5 | 0.00 | 0.00 | 0.00 | 30 | 1015.5 |
| 20260502162057 | 26 | 205 | 6.4 | 14.5 | 0.00 | 0.00 | 0.00 | 30 | 1015.5 |
| 20260502161623 | 26 | 208 | 3.2 | 9.7 | 0.00 | 0.00 | 0.00 | 29 | 1015.6 |
| 20260502161057 | 26 | 187 | 4.8 | 9.7 | 0.00 | 0.00 | 0.00 | 30 | 1015.7 |
| 20260502160556 | 26 | 210 | 3.2 | 9.7 | 0.00 | 0.00 | 0.00 | 31 | 1015.7 |
| 20260502152059 | 27 | 253 | 4.8 | 14.5 | 0.00 | 0.00 | 0.00 | 27 | 1016.1 |
| 20260502151609 | 27 | 211 | 4.8 | 19.3 | 0.00 | 0.00 | 0.00 | 30 | 1016.1 |
| 20260502151056 | 27 | 236 | 6.4 | 19.3 | 0.00 | 0.00 | 0.00 | 28 | 1016.1 |
| 20260502150557 | 27 | 209 | 8.0 | 19.3 | 0.00 | 0.00 | 0.00 | 29 | 1016.3 |
| 20260502130556 | 27 | 236 | 9.7 | 20.9 | 0.00 | 0.00 | 0.00 | 29 | 1017.5 |
| 20260502123556 | 27 | 269 | 4.8 | 17.7 | 0.00 | 0.00 | 0.00 | 26 | 1017.9 |
| 20260502123100 | 27 | 215 | 9.7 | 17.7 | 0.00 | 0.00 | 0.00 | 27 | 1017.9 |
| 20260502122557 | 27 | 245 | 4.8 | 22.5 | 0.00 | 0.00 | 0.00 | 27 | 1018.0 |
| 20260502122056 | 27 | 223 | 12.9 | 22.5 | 0.00 | 0.00 | 0.00 | 27 | 1018.0 |
| 20260502121559 | 27 | 223 | 8.0 | 19.3 | 0.00 | 0.00 | 0.00 | 24 | 1018.1 |
| 20260502121057 | 27 | 230 | 8.0 | 19.3 | 0.00 | 0.00 | 0.00 | 25 | 1018.1 |
| 20260502120558 | 27 | 161 | 8.0 | 16.1 | 0.00 | 0.00 | 0.00 | 24 | 1018.1 |
| 20260502115556 | 27 | 148 | 3.2 | 14.5 | 0.00 | 0.00 | 0.00 | 28 | 1018.3 |
| 20260502115059 | 27 | 134 | 4.8 | 17.7 | 0.00 | 0.00 | 0.00 | 28 | 1018.4 |
| 20260502114557 | 26 | 188 | 6.4 | 17.7 | 0.00 | 0.00 | 0.00 | 28 | 1018.5 |
| 20260502114059 | 26 | 247 | 8.0 | 16.1 | 0.00 | 0.00 | 0.00 | 29 | 1018.5 |
| 20260502113556 | 26 | 240 | 8.0 | 14.5 | 0.00 | 0.00 | 0.00 | 31 | 1018.6 |
| 20260502113057 | 26 | 0 | 6.4 | 17.7 | 0.00 | 0.00 | 0.00 | 30 | 1018.7 |
| 20260502112555 | 26 | 235 | 8.0 | 17.7 | 0.00 | 0.00 | 0.00 | 31 | 1018.8 |
| 20260502112055 | 26 | 228 | 8.0 | 17.7 | 0.00 | 0.00 | 0.00 | 30 | 1018.9 |
| 20260502111606 | 26 | 242 | 4.8 | 14.5 | 0.00 | 0.00 | 0.00 | 30 | 1018.9 |
| 20260502111055 | 26 | 243 | 4.8 | 20.9 | 0.00 | 0.00 | 0.00 | 32 | 1019.0 |
| 20260502110557 | 26 | 229 | 11.3 | 20.9 | 0.00 | 0.00 | 0.00 | 32 | 1019.0 |
| 20260502110058 | 26 | 238 | 6.4 | 16.1 | 0.00 | 0.00 | 0.00 | 32 | 1019.1 |
| 20260502105558 | 25 | 221 | 6.4 | 14.5 | 0.00 | 0.00 | 0.00 | 35 | 1019.2 |
| 20260502105057 | 25 | 188 | 6.4 | 19.3 | 0.00 | 0.00 | 0.00 | 35 | 1019.3 |
| 20260502104559 | 25 | 223 | 9.7 | 19.3 | 0.00 | 0.00 | 0.00 | 33 | 1019.3 |
| 20260502104056 | 25 | 223 | 9.7 | 19.3 | 0.00 | 0.00 | 0.00 | 34 | 1019.4 |
| 20260502103558 | 25 | 232 | 9.7 | 20.9 | 0.00 | 0.00 | 0.00 | 32 | 1019.5 |
| 20260502103059 | 25 | 232 | 11.3 | 20.9 | 0.00 | 0.00 | 0.00 | 33 | 1019.6 |
| 20260502102557 | 25 | 181 | 9.7 | 19.3 | 0.00 | 0.00 | 0.00 | 32 | 1019.6 |
| 20260502102056 | 25 | 221 | 4.8 | 19.3 | 0.00 | 0.00 | 0.00 | 37 | 1019.7 |
| 20260502101555 | 25 | 238 | 8.0 | 20.9 | 0.00 | 0.00 | 0.00 | 35 | 1019.8 |
| 20260502101055 | 25 | 224 | 6.4 | 22.5 | 0.00 | 0.00 | 0.00 | 33 | 1019.9 |
| 20260502100556 | 25 | 164 | 12.9 | 22.5 | 0.00 | 0.00 | 0.00 | 35 | 1020.0 |
| 20260502091056 | 23 | 196 | 9.7 | 24.1 | 0.00 | 0.00 | 0.00 | 34 | 1020.4 |
| 20260502090558 | 23 | 199 | 9.7 | 19.3 | 0.00 | 0.00 | 0.00 | 34 | 1020.3 |
| 20260502090114 | 23 | 213 | 8.0 | 19.3 | 0.00 | 0.00 | 0.00 | 35 | 1020.4 |
| 20260502071057 | 17 | 159 | 1.6 | 9.7 | 0.00 | 0.00 | 0.00 | 56 | 1021.1 |
| 20260502070556 | 17 | 178 | 3.2 | 12.9 | 0.00 | 0.00 | 0.00 | 54 | 1021.3 |
| 20260502070109 | 17 | 144 | 4.8 | 12.9 | 0.00 | 0.00 | 0.00 | 55 | 1021.2 |
| 20260502065556 | 16 | 360 | 1.6 | 8.0 | 0.00 | 0.00 | 0.00 | 57 | 1021.3 |
| 20260502065056 | 16 | 360 | 3.2 | 8.0 | 0.00 | 0.00 | 0.00 | 58 | 1021.4 |
| 20260502064557 | 16 | 360 | 3.2 | 12.9 | 0.00 | 0.00 | 0.00 | 57 | 1021.4 |
| 20260502064056 | 16 | 360 | 6.4 | 12.9 | 0.00 | 0.00 | 0.00 | 58 | 1021.4 |
| 20260502063556 | 15 | 360 | 4.8 | 16.1 | 0.00 | 0.00 | 0.00 | 58 | 1021.5 |
| 20260502063057 | 15 | 360 | 6.4 | 16.1 | 0.00 | 0.00 | 0.00 | 59 | 1021.5 |
| 20260502062556 | 15 | 360 | 6.4 | 14.5 | 0.00 | 0.00 | 0.00 | 59 | 1021.5 |
| 20260502062056 | 15 | 360 | 4.8 | 12.9 | 0.00 | 0.00 | 0.00 | 60 | 1021.5 |
| 20260502061557 | 14 | 360 | 4.8 | 12.9 | 0.00 | 0.00 | 0.00 | 62 | 1021.5 |
| 20260502061055 | 13 | 0 | 0.0 | 9.7 | 0.00 | 0.00 | 0.00 | 64 | 1021.5 |
| 20260502060559 | 13 | 175 | 3.2 | 9.7 | 0.00 | 0.00 | 0.00 | 65 | 1021.6 |
| 20260502060055 | 13 | 175 | 3.2 | 9.7 | 0.00 | 0.00 | 0.00 | 65 | 1021.6 |
| 20260502055557 | 13 | 0 | 3.2 | 12.9 | 0.00 | 0.00 | 0.00 | 65 | 1021.6 |
| 20260502055056 | 12 | 163 | 4.8 | 14.5 | 0.00 | 0.00 | 0.00 | 65 | 1021.6 |
| 20260502054556 | 12 | 171 | 6.4 | 14.5 | 0.00 | 0.00 | 0.00 | 67 | 1021.6 |
| 20260502054056 | 12 | 146 | 3.2 | 11.3 | 0.00 | 0.00 | 0.00 | 67 | 1021.7 |
| 20260502053559 | 11 | 159 | 3.2 | 11.3 | 0.00 | 0.00 | 0.00 | 68 | 1021.7 |
| 20260502053124 | 11 | 360 | 3.2 | 9.7 | 0.00 | 0.00 | 0.00 | 69 | 1021.7 |
| 20260502052557 | 11 | 360 | 3.2 | 9.7 | 0.00 | 0.00 | 0.00 | 69 | 1021.7 |
| 20260502052100 | 11 | 360 | 3.2 | 9.7 | 0.00 | 0.00 | 0.00 | 70 | 1021.7 |
| 20260502051614 | 10 | 360 | 3.2 | 8.0 | 0.00 | 0.00 | 0.00 | 71 | 1021.8 |
| 20260502051100 | 10 | 360 | 3.2 | 6.4 | 0.00 | 0.00 | 0.00 | 71 | 1021.7 |
| 20260502050601 | 10 | 360 | 1.6 | 6.4 | 0.00 | 0.00 | 0.00 | 71 | 1021.7 |
| 20260502050059 | 10 | 360 | 1.6 | 9.7 | 0.00 | 0.00 | 0.00 | 71 | 1021.8 |
| 20260502045557 | 10 | 360 | 3.2 | 9.7 | 0.00 | 0.00 | 0.00 | 71 | 1021.7 |
| 20260502045059 | 10 | 360 | 4.8 | 8.0 | 0.00 | 0.00 | 0.00 | 71 | 1021.7 |
| 20260502044557 | 10 | 360 | 1.6 | 6.4 | 0.00 | 0.00 | 0.00 | 71 | 1021.7 |
| 20260502044059 | 10 | 360 | 3.2 | 6.4 | 0.00 | 0.00 | 0.00 | 70 | 1021.8 |
| 20260502043557 | 10 | 360 | 1.6 | 8.0 | 0.00 | 0.00 | 0.00 | 70 | 1021.8 |
| 20260502043111 | 10 | 360 | 1.6 | 9.7 | 0.00 | 0.00 | 0.00 | 70 | 1021.8 |
| 20260502042558 | 10 | 360 | 3.2 | 12.9 | 0.00 | 0.00 | 0.00 | 70 | 1021.7 |
| 20260502042058 | 10 | 360 | 4.8 | 12.9 | 0.00 | 0.00 | 0.00 | 70 | 1021.7 |
| 20260502041626 | 10 | 360 | 4.8 | 12.9 | 0.00 | 0.00 | 0.00 | 70 | 1021.7 |
| 20260502041057 | 10 | 360 | 4.8 | 12.9 | 0.00 | 0.00 | 0.00 | 70 | 1021.8 |
| 20260502040557 | 10 | 360 | 4.8 | 12.9 | 0.00 | 0.00 | 0.00 | 69 | 1021.7 |
| 20260502040057 | 10 | 360 | 4.8 | 8.0 | 0.00 | 0.00 | 0.00 | 68 | 1021.7 |
| 20260502035557 | 10 | 360 | 3.2 | 8.0 | 0.00 | 0.00 | 0.00 | 68 | 1021.8 |
| 20260502035057 | 10 | 360 | 3.2 | 8.0 | 0.00 | 0.00 | 0.00 | 67 | 1021.8 |
| 20260502034555 | 10 | 360 | 1.6 | 6.4 | 0.00 | 0.00 | 0.00 | 66 | 1021.8 |
| 20260502034056 | 11 | 360 | 1.6 | 6.4 | 0.00 | 0.00 | 0.00 | 66 | 1021.9 |
| 20260502033559 | 11 | 360 | 1.6 | 9.7 | 0.00 | 0.00 | 0.00 | 66 | 1021.9 |
| 20260502033107 | 11 | 360 | 0.0 | 12.9 | 0.00 | 0.00 | 0.00 | 66 | 1021.9 |
| 20260502032557 | 11 | 360 | 3.2 | 12.9 | 0.00 | 0.00 | 0.00 | 66 | 1021.9 |
| 20260502032057 | 11 | 360 | 3.2 | 14.5 | 0.00 | 0.00 | 0.00 | 66 | 1022.0 |
| 20260502031556 | 10 | 360 | 4.8 | 14.5 | 0.00 | 0.00 | 0.00 | 67 | 1022.1 |
| 20260502031058 | 10 | 360 | 6.4 | 12.9 | 0.00 | 0.00 | 0.00 | 67 | 1022.1 |
| 20260502030558 | 10 | 360 | 6.4 | 14.5 | 0.00 | 0.00 | 0.00 | 68 | 1022.0 |
| 20260502030058 | 10 | 360 | 6.4 | 16.1 | 0.00 | 0.00 | 0.00 | 68 | 1022.0 |
| 20260502025557 | 10 | 360 | 8.0 | 16.1 | 0.00 | 0.00 | 0.00 | 68 | 1022.2 |
| 20260502025057 | 10 | 360 | 6.4 | 12.9 | 0.00 | 0.00 | 0.00 | 68 | 1022.3 |
| 20260502024557 | 10 | 360 | 6.4 | 12.9 | 0.00 | 0.00 | 0.00 | 68 | 1022.2 |
| 20260502024058 | 10 | 360 | 4.8 | 12.9 | 0.00 | 0.00 | 0.00 | 68 | 1022.3 |
| 20260502023559 | 10 | 360 | 4.8 | 9.7 | 0.00 | 0.00 | 0.00 | 68 | 1022.4 |
| 20260502023059 | 10 | 360 | 4.8 | 9.7 | 0.00 | 0.00 | 0.00 | 68 | 1022.5 |